HAZ1606 ZPPP-ZUUU

Flight info

Callsign HAZ1606
Flight time 0h 54m
Altitude 29100
Route DADOL4Q DADOL W144 IGNAK IGNAK2E
Aircraft B738/M-SDE2E3FGHIRWXY/LB1

Departure

Time 2026-05-04 12:14
Airport Kunming Changshui International Airport (ZPPP)

Arrival

Time 2026-05-04 13:08
Airport Chengdu Shuangliu International Airport (ZUUU)
Time Latitude Longitude Altitude Speed Heading
2026-05-04 11:35 25.11033 102.94071 6892 ft 0 kts 221°
2026-05-04 11:37 25.11038 102.94076 6892 ft 0 kts 221°
2026-05-04 11:59 25.11045 102.94082 6892 ft 4 kts 221°
2026-05-04 11:59 25.11065 102.94102 6892 ft 4 kts 220°
2026-05-04 11:59 25.11085 102.94120 6892 ft 4 kts 220°
2026-05-04 11:59 25.11101 102.94135 6892 ft 4 kts 240°
2026-05-04 12:00 25.11102 102.94157 6892 ft 3 kts 307°
2026-05-04 12:00 25.11086 102.94178 6892 ft 3 kts 308°
2026-05-04 12:00 25.11084 102.94181 6892 ft 0 kts 308°
2026-05-04 12:03 25.11091 102.94172 6892 ft 3 kts 308°
2026-05-04 12:03 25.11108 102.94147 6892 ft 5 kts 308°
2026-05-04 12:04 25.11135 102.94110 6892 ft 7 kts 308°
2026-05-04 12:04 25.11170 102.94061 6893 ft 9 kts 308°
2026-05-04 12:04 25.11212 102.94004 6893 ft 10 kts 309°
2026-05-04 12:04 25.11260 102.93938 6894 ft 12 kts 308°
2026-05-04 12:05 25.11312 102.93865 6895 ft 12 kts 309°
2026-05-04 12:05 25.11368 102.93788 6896 ft 13 kts 308°
2026-05-04 12:05 25.11422 102.93714 6897 ft 13 kts 310°
2026-05-04 12:05 25.11477 102.93639 6898 ft 12 kts 309°
2026-05-04 12:06 25.11530 102.93566 6899 ft 12 kts 309°
2026-05-04 12:06 25.11584 102.93495 6899 ft 12 kts 313°
2026-05-04 12:06 25.11639 102.93432 6900 ft 11 kts 311°
2026-05-04 12:06 25.11692 102.93370 6900 ft 11 kts 334°
2026-05-04 12:07 25.11765 102.93387 6900 ft 11 kts
2026-05-04 12:07 25.11832 102.93355 6900 ft 11 kts 356°
2026-05-04 12:07 25.11894 102.93392 6899 ft 10 kts 38°
2026-05-04 12:07 25.11952 102.93442 6899 ft 11 kts 38°
2026-05-04 12:08 25.12021 102.93501 6899 ft 14 kts 39°
2026-05-04 12:08 25.12102 102.93572 6899 ft 16 kts 38°
2026-05-04 12:08 25.12197 102.93654 6898 ft 18 kts 38°
2026-05-04 12:08 25.12300 102.93744 6899 ft 20 kts 39°
2026-05-04 12:09 25.12410 102.93840 6897 ft 20 kts 38°
2026-05-04 12:09 25.12518 102.93934 6897 ft 20 kts 38°
2026-05-04 12:09 25.12623 102.94024 6896 ft 19 kts 38°
2026-05-04 12:09 25.12725 102.94113 6896 ft 18 kts 38°
2026-05-04 12:10 25.12818 102.94195 6895 ft 16 kts 38°
2026-05-04 12:10 25.12888 102.94254 6895 ft 9 kts 38°
2026-05-04 12:10 25.12937 102.94280 6895 ft 8 kts 355°
2026-05-04 12:10 25.12970 102.94253 6894 ft 1 kts 306°
2026-05-04 12:11 25.12972 102.94250 6894 ft 2 kts 306°
2026-05-04 12:11 25.12987 102.94226 6894 ft 6 kts 307°
2026-05-04 12:12 25.13024 102.94173 6893 ft 11 kts 303°
2026-05-04 12:12 25.12994 102.94104 6893 ft 10 kts 216°
2026-05-04 12:12 25.12987 102.94099 6893 ft 0 kts 217°
2026-05-04 12:12 25.12986 102.94098 6893 ft 1 kts 217°
2026-05-04 12:13 25.12811 102.93946 6894 ft 70 kts 218°
2026-05-04 12:14 25.08551 102.86270 9648 ft 246 kts 313°
2026-05-04 12:15 25.10041 102.85247 10098 ft 262 kts 341°
2026-05-04 12:15 25.11881 102.85095 10734 ft 271 kts
2026-05-04 12:15 25.13719 102.85598 11457 ft 277 kts 14°
2026-05-04 12:15 25.15599 102.86238 11765 ft 303 kts 14°
2026-05-04 12:16 25.17608 102.86933 11980 ft 330 kts 15°
2026-05-04 12:16 25.19892 102.87713 12195 ft 356 kts 14°
2026-05-04 12:16 25.22317 102.88525 12546 ft 374 kts 14°
2026-05-04 12:16 25.24821 102.89357 13237 ft 381 kts 14°
2026-05-04 12:17 25.27369 102.90189 14016 ft 384 kts 13°
2026-05-04 12:17 25.29924 102.91010 14677 ft 388 kts 13°
2026-05-04 12:17 25.32521 102.91838 15290 ft 393 kts 13°
2026-05-04 12:17 25.35166 102.92677 15877 ft 398 kts 13°
2026-05-04 12:18 25.37796 102.93511 16495 ft 401 kts 13°
2026-05-04 12:18 25.40495 102.94366 17042 ft 407 kts 12°
2026-05-04 12:18 25.43239 102.95233 17610 ft 412 kts 12°
2026-05-04 12:18 25.46008 102.96109 18194 ft 416 kts 12°
2026-05-04 12:19 25.48803 102.96995 18737 ft 420 kts 12°
2026-05-04 12:19 25.51500 102.97851 19215 ft 423 kts 12°
2026-05-04 12:19 25.54301 102.98739 19715 ft 426 kts 12°
2026-05-04 12:19 25.57139 102.99640 20217 ft 428 kts 12°
2026-05-04 12:20 25.59966 103.00538 20696 ft 431 kts 12°
2026-05-04 12:20 25.62866 103.01459 21187 ft 434 kts 12°
2026-05-04 12:20 25.65768 103.02380 21658 ft 438 kts 11°
2026-05-04 12:20 25.68704 103.03310 22170 ft 439 kts 12°
2026-05-04 12:21 25.71601 103.04234 22622 ft 441 kts 11°
2026-05-04 12:21 25.74604 103.05192 23035 ft 445 kts 11°
2026-05-04 12:21 25.77587 103.06142 23399 ft 448 kts 11°
2026-05-04 12:21 25.80601 103.07103 23793 ft 451 kts 11°
2026-05-04 12:22 25.83581 103.08053 24112 ft 454 kts 11°
2026-05-04 12:22 25.86577 103.09010 24431 ft 456 kts 11°
2026-05-04 12:22 25.89523 103.09950 24733 ft 458 kts 11°
2026-05-04 12:22 25.92586 103.10912 25051 ft 458 kts 10°
2026-05-04 12:23 25.95650 103.11886 25307 ft 461 kts 11°
2026-05-04 12:23 25.98737 103.12880 25563 ft 466 kts 11°
2026-05-04 12:23 26.01867 103.13889 25822 ft 469 kts 11°
2026-05-04 12:23 26.04954 103.14884 26215 ft 468 kts 10°
2026-05-04 12:24 26.08102 103.15895 26528 ft 470 kts 10°
2026-05-04 12:24 26.11258 103.16907 26777 ft 473 kts 10°
2026-05-04 12:24 26.14429 103.17921 27053 ft 476 kts 10°
2026-05-04 12:24 26.17611 103.18940 27347 ft 478 kts 10°
2026-05-04 12:25 26.20816 103.19967 27644 ft 480 kts 10°
2026-05-04 12:25 26.24028 103.20999 27936 ft 482 kts 10°
2026-05-04 12:25 26.27251 103.22036 28345 ft 481 kts 10°
2026-05-04 12:25 26.30452 103.23074 28876 ft 477 kts 10°
2026-05-04 12:26 26.33636 103.24100 29291 ft 477 kts
2026-05-04 12:26 26.36780 103.25109 29346 ft 476 kts
2026-05-04 12:26 26.43165 103.27161 29356 ft 478 kts
2026-05-04 12:27 26.49551 103.29224 29356 ft 478 kts 10°
2026-05-04 12:27 26.55713 103.32184 29379 ft 487 kts 20°
2026-05-04 12:28 26.61670 103.35684 29339 ft 488 kts 21°
2026-05-04 12:28 26.67608 103.39134 29319 ft 486 kts 20°
2026-05-04 12:29 26.73603 103.42516 29319 ft 484 kts 20°
2026-05-04 12:29 26.79616 103.45867 29322 ft 482 kts 20°
2026-05-04 12:30 26.85613 103.49218 29318 ft 482 kts 20°
2026-05-04 12:30 26.91574 103.52556 29302 ft 482 kts 19°
2026-05-04 12:31 26.97573 103.55919 29290 ft 481 kts 20°
2026-05-04 12:31 27.03520 103.59268 29285 ft 480 kts 19°
2026-05-04 12:32 27.12427 103.64282 29295 ft 479 kts 20°
2026-05-04 12:33 27.18340 103.67613 29262 ft 480 kts 20°
2026-05-04 12:33 27.24201 103.70921 29268 ft 480 kts 20°
2026-05-04 12:34 27.30171 103.74294 29251 ft 480 kts 20°
2026-05-04 12:34 27.36170 103.77581 29251 ft 478 kts 18°
2026-05-04 12:35 27.42190 103.80628 29242 ft 478 kts 17°
2026-05-04 12:35 27.48240 103.83757 29237 ft 478 kts 18°
2026-05-04 12:36 27.54273 103.86914 29226 ft 478 kts 18°
2026-05-04 12:36 27.60292 103.90068 29231 ft 476 kts 18°
2026-05-04 12:37 27.66259 103.93188 29207 ft 476 kts 18°
2026-05-04 12:37 27.72217 103.96418 29201 ft 474 kts 19°
2026-05-04 12:38 27.78160 103.99530 29185 ft 472 kts 17°
2026-05-04 12:38 27.84141 104.02591 29184 ft 473 kts 18°
2026-05-04 12:39 27.90123 104.05733 29184 ft 475 kts 18°
2026-05-04 12:39 27.96041 104.08862 29169 ft 476 kts 18°
2026-05-04 12:40 28.01994 104.12120 29155 ft 478 kts 19°
2026-05-04 12:40 28.07988 104.15279 29174 ft 471 kts 16°
2026-05-04 12:41 28.14006 104.18303 29142 ft 475 kts 18°
2026-05-04 12:41 28.19931 104.21502 29134 ft 475 kts 18°
2026-05-04 12:42 28.25918 104.24718 29126 ft 477 kts 17°
2026-05-04 12:42 28.31930 104.27917 29115 ft 477 kts 17°
2026-05-04 12:43 28.38031 104.30428 29105 ft 461 kts
2026-05-04 12:43 28.44262 104.30876 29117 ft 445 kts 349°
2026-05-04 12:44 28.50432 104.30450 29137 ft 444 kts 349°
2026-05-04 12:44 28.56615 104.30058 29104 ft 444 kts 349°
2026-05-04 12:45 28.62767 104.29714 29103 ft 442 kts 349°
2026-05-04 12:45 28.68901 104.29373 29097 ft 441 kts 349°
2026-05-04 12:46 28.74978 104.29043 29084 ft 439 kts 349°
2026-05-04 12:46 28.81077 104.28713 29101 ft 438 kts 350°
2026-05-04 12:47 28.87157 104.28384 29086 ft 437 kts 350°
2026-05-04 12:47 28.93063 104.28063 29086 ft 436 kts 350°
2026-05-04 12:48 28.99125 104.27733 29080 ft 436 kts 350°
2026-05-04 12:48 29.05139 104.27405 29081 ft 436 kts 350°
2026-05-04 12:49 29.11132 104.27083 29006 ft 421 kts 350°
2026-05-04 12:49 29.14053 104.26926 28336 ft 419 kts 350°
2026-05-04 12:49 29.16957 104.26766 27625 ft 415 kts 350°
2026-05-04 12:49 29.19829 104.26607 26918 ft 411 kts 350°
2026-05-04 12:50 29.22638 104.26452 26203 ft 409 kts 351°
2026-05-04 12:50 29.25475 104.26296 25494 ft 407 kts 351°
2026-05-04 12:50 29.28273 104.26004 24785 ft 399 kts 343°
2026-05-04 12:50 29.30951 104.25264 24132 ft 394 kts 340°
2026-05-04 12:51 29.33586 104.24419 23449 ft 392 kts 339°
2026-05-04 12:51 29.36198 104.23554 22675 ft 390 kts 340°
2026-05-04 12:51 29.38803 104.22698 21875 ft 389 kts 341°
2026-05-04 12:51 29.41392 104.21862 21180 ft 387 kts 341°
2026-05-04 12:52 29.43902 104.21067 20602 ft 382 kts 341°
2026-05-04 12:52 29.46409 104.20280 20072 ft 376 kts 342°
2026-05-04 12:52 29.48921 104.19498 19545 ft 371 kts 342°
2026-05-04 12:52 29.51398 104.18730 19032 ft 367 kts 342°
2026-05-04 12:53 29.53854 104.17968 18510 ft 364 kts 342°
2026-05-04 12:53 29.56285 104.17215 17955 ft 362 kts 343°
2026-05-04 12:53 29.58713 104.16461 17413 ft 360 kts 343°
2026-05-04 12:53 29.61129 104.15711 16888 ft 360 kts 343°
2026-05-04 12:54 29.63586 104.14947 16385 ft 371 kts 343°
2026-05-04 12:54 29.66062 104.14177 15856 ft 374 kts 343°
2026-05-04 12:54 29.68543 104.13406 15330 ft 370 kts 344°
2026-05-04 12:54 29.70958 104.12656 14803 ft 365 kts 344°
2026-05-04 12:55 29.73396 104.11898 14284 ft 361 kts 344°
2026-05-04 12:55 29.75805 104.11149 13768 ft 358 kts 345°
2026-05-04 12:55 29.78199 104.10404 13209 ft 354 kts 345°
2026-05-04 12:55 29.80566 104.09667 12688 ft 350 kts 344°
2026-05-04 12:56 29.82907 104.08938 12176 ft 347 kts 344°
2026-05-04 12:56 29.85234 104.08213 11672 ft 347 kts 344°
2026-05-04 12:56 29.87543 104.07493 11173 ft 349 kts 344°
2026-05-04 12:56 29.89878 104.06764 10956 ft 348 kts 344°
2026-05-04 12:57 29.92181 104.06045 10791 ft 341 kts 344°
2026-05-04 12:57 29.94421 104.05347 10639 ft 328 kts 343°
2026-05-04 12:57 29.96579 104.04673 10494 ft 317 kts 343°
2026-05-04 12:57 29.98653 104.04025 10352 ft 306 kts 343°
2026-05-04 12:58 30.00677 104.03393 10218 ft 296 kts 343°
2026-05-04 12:58 30.02632 104.02780 10094 ft 287 kts 343°
2026-05-04 12:58 30.04532 104.02186 9920 ft 281 kts 343°
2026-05-04 12:58 30.06385 104.01605 9623 ft 279 kts 343°
2026-05-04 12:59 30.08258 104.01017 9309 ft 278 kts 343°
2026-05-04 12:59 30.10121 104.00432 9007 ft 277 kts 343°
2026-05-04 12:59 30.11970 103.99851 8698 ft 275 kts 343°
2026-05-04 12:59 30.13815 103.99272 8410 ft 274 kts 343°
2026-05-04 13:00 30.15653 103.98695 8098 ft 274 kts 343°
2026-05-04 13:00 30.17465 103.98126 7893 ft 269 kts 343°
2026-05-04 13:00 30.19242 103.97569 7802 ft 257 kts 343°
2026-05-04 13:00 30.20882 103.97054 7656 ft 244 kts 343°
2026-05-04 13:01 30.22498 103.96546 7512 ft 239 kts 343°
2026-05-04 13:01 30.24100 103.96042 7387 ft 239 kts 343°
2026-05-04 13:01 30.25679 103.95546 7198 ft 234 kts 343°
2026-05-04 13:01 30.27217 103.94976 6934 ft 231 kts 331°
2026-05-04 13:02 30.28281 103.93759 6694 ft 225 kts 298°
2026-05-04 13:02 30.28917 103.92153 6447 ft 224 kts 290°
2026-05-04 13:02 30.29480 103.90502 6187 ft 216 kts 289°
2026-05-04 13:02 30.30010 103.88947 5952 ft 205 kts 289°
2026-05-04 13:03 30.30523 103.87457 5757 ft 197 kts 289°
2026-05-04 13:03 30.31151 103.86093 5541 ft 200 kts 311°
2026-05-04 13:03 30.32337 103.85306 5347 ft 197 kts 344°
2026-05-04 13:03 30.33684 103.85347 5139 ft 196 kts 19°
2026-05-04 13:04 30.34970 103.85875 4979 ft 197 kts 19°
2026-05-04 13:04 30.36260 103.86401 4862 ft 199 kts 21°
2026-05-04 13:04 30.37546 103.86975 4608 ft 196 kts 22°
2026-05-04 13:04 30.38772 103.87541 4365 ft 188 kts 22°
2026-05-04 13:05 30.39963 103.88094 4127 ft 181 kts 23°
2026-05-04 13:05 30.41105 103.88625 3890 ft 171 kts 23°
2026-05-04 13:05 30.42186 103.89127 3680 ft 164 kts 23°
2026-05-04 13:05 30.43248 103.89621 3483 ft 164 kts 23°
2026-05-04 13:06 30.44309 103.90115 3270 ft 164 kts 24°
2026-05-04 13:06 30.45365 103.90605 3057 ft 163 kts 24°
2026-05-04 13:06 30.46403 103.91088 2852 ft 163 kts 24°
2026-05-04 13:06 30.47441 103.91568 2630 ft 163 kts 23°
2026-05-04 13:07 30.48510 103.92056 2415 ft 172 kts 23°
2026-05-04 13:07 30.49581 103.92569 2216 ft 161 kts 22°
2026-05-04 13:07 30.50609 103.93050 1974 ft 159 kts 21°
2026-05-04 13:07 30.51617 103.93513 1731 ft 152 kts 22°
2026-05-04 13:08 30.52556 103.93955 1647 ft 138 kts 18°
2026-05-04 13:08 30.53271 103.94287 1645 ft 89 kts 22°
2026-05-04 13:08 30.53732 103.94502 1645 ft 54 kts 22°
2026-05-04 13:08 30.53976 103.94614 1645 ft 24 kts 16°
2026-05-04 13:09 30.54099 103.94635 1645 ft 17 kts 358°
2026-05-04 13:09 30.54181 103.94625 1645 ft 6 kts 353°
2026-05-04 13:09 30.54221 103.94619 1645 ft 6 kts 353°
2026-05-04 13:09 30.54261 103.94614 1645 ft 6 kts 353°
2026-05-04 13:10 30.54310 103.94607 1645 ft 9 kts 353°
2026-05-04 13:10 30.54387 103.94597 1645 ft 13 kts 355°
2026-05-04 13:10 30.54487 103.94628 1645 ft 17 kts 22°
2026-05-04 13:10 30.54599 103.94680 1645 ft 18 kts 22°
2026-05-04 13:11 30.54710 103.94733 1645 ft 17 kts 21°
2026-05-04 13:11 30.54801 103.94775 1645 ft 11 kts 22°
2026-05-04 13:11 30.54873 103.94809 1653 ft 11 kts 22°
2026-05-04 13:11 30.54943 103.94842 1645 ft 11 kts 22°
2026-05-04 13:12 30.55013 103.94858 1645 ft 10 kts 339°
2026-05-04 13:12 30.55054 103.94793 1645 ft 10 kts 291°
2026-05-04 13:12 30.55080 103.94718 1645 ft 10 kts 292°
2026-05-04 13:12 30.55105 103.94645 1645 ft 10 kts 291°
2026-05-04 13:13 30.55133 103.94576 1645 ft 9 kts 303°
2026-05-04 13:13 30.55175 103.94520 1645 ft 10 kts 319°
2026-05-04 13:13 30.55236 103.94477 1645 ft 11 kts 338°
2026-05-04 13:13 30.55310 103.94441 1645 ft 12 kts 334°
2026-05-04 13:14 30.55387 103.94400 1646 ft 12 kts 336°
2026-05-04 13:14 30.55466 103.94361 1646 ft 12 kts 336°
2026-05-04 13:14 30.55538 103.94325 1646 ft 12 kts 336°
2026-05-04 13:14 30.55614 103.94286 1646 ft 12 kts 336°
2026-05-04 13:15 30.55696 103.94246 1645 ft 13 kts 338°
2026-05-04 13:15 30.55781 103.94209 1645 ft 13 kts 347°
2026-05-04 13:15 30.55871 103.94208 1645 ft 13 kts
2026-05-04 13:15 30.55959 103.94242 1645 ft 13 kts 22°
2026-05-04 13:16 30.56049 103.94285 1645 ft 14 kts 22°
2026-05-04 13:16 30.56142 103.94327 1645 ft 14 kts 21°
2026-05-04 13:16 30.56230 103.94369 1645 ft 13 kts 22°
2026-05-04 13:16 30.56314 103.94409 1645 ft 13 kts 22°
2026-05-04 13:17 30.56397 103.94448 1645 ft 13 kts 22°
2026-05-04 13:17 30.56476 103.94484 1645 ft 12 kts 22°
2026-05-04 13:17 30.56556 103.94522 1645 ft 12 kts 22°
2026-05-04 13:17 30.56634 103.94559 1645 ft 12 kts 22°
2026-05-04 13:18 30.56715 103.94596 1645 ft 12 kts 22°
2026-05-04 13:18 30.56789 103.94631 1645 ft 9 kts 22°
2026-05-04 13:18 30.56853 103.94662 1645 ft 11 kts 22°
2026-05-04 13:18 30.56870 103.94727 1645 ft 11 kts 125°
2026-05-04 13:19 30.56840 103.94808 1645 ft 11 kts 111°
2026-05-04 13:19 30.56812 103.94890 1645 ft 11 kts 112°
2026-05-04 13:19 30.56784 103.94970 1645 ft 7 kts 112°
2026-05-04 13:19 30.56787 103.95012 1645 ft 6 kts 49°
2026-05-04 13:20 30.56829 103.95036 1645 ft 7 kts 21°
2026-05-04 13:20 30.56878 103.95059 1645 ft 7 kts 22°
2026-05-04 13:20 30.56900 103.95069 1645 ft 2 kts 22°
2026-05-04 13:20 30.56907 103.95073 1645 ft 0 kts 22°
2026-05-04 13:21 30.56909 103.95074 1645 ft 0 kts 22°